SCP
0 -0 -0 0 0 0 -0 -0 -0 -0 0 0 0 0 0 0 0 0 0 0 -0 0 0 0 0 0 0 0 1 0 0 0 0 0 0 0 0 1
0 0 -0 -0 0 0 0 -0 -0 -0 0 0 0 0 0 0 0 0 0 -0 -0 0 0 0 0 0 0 0 0 0 0 0 0 0 0 0 0 1
0 -0 -0 0 -0 0 0 0 0 -0 -0 -0 0 0 -0 0 -0 0 0 0 1 0 0 0 0 0 0 0 0 0 0 0 0 0 0 0 0 0
-0 -0 0 0 -0 -0 -0 0 0 0 -0 0 -0 0 0 0 -0 0 0 0 1 0 0 0 0 0 0 0 0 0 0 0 0 0 0 0 0 0
-0 -0 0 0 0 0 -0 -0 -0 -0 -0 -0 -0 -0 0 -0 -0 0 0 0 1 0 0 1 1 0 0 0 0 0 0 0 0 0 0 0 0 0
0 0 0 0 0 -0 -0 -0 -0 -0 -0 -0 -0 0 -0 -0 -0 -0 -0 0 1 1 1 1 0 1 0 0 0 0 0 0 0 0 0 0 0 0
0 0 0 0 0 0 0 -0 -0 -0 -0 -0 -0 -0 0 0 -0 -0 -0 -0 0 1 1 1 2 1 1 1 0 0 0 0 0 0 0 0 0 0
0 -0 -0 0 0 0 0 0 0 0 0 0 0 0 0 0 0 0 0 0 0 1 2 1 2 2 1 1 0 0 0 0 0 0 0 0 0 0
0 0 -0 0 0 0 0 0 0 0 0 0 0 0 0 0 0 0 0 1 1 1 2 2 2 2 1 0 0 0 0 0 0 0 0 0 0 0
0 0 0 0 0 0 0 0 0 0 0 0 0 0 0 0 0 0 1 1 2 1 2 2 2 2 1 0 0 0 0 0 0 0 0 0 0 0
0 0 0 0 0 0 0 0 0 0 0 0 0 0 -0 -0 0 1 1 1 1 1 2 3 2 1 1 0 0 0 0 0 0 0 0 0 0 0
0 0 0 0 1 0 0 0 0 0 0 0 0 0 0 0 0 0 1 1 2 2 2 3 2 1 0 0 0 0 0 0 0 0 0 0 0 0
0 0 0 0 0 0 0 0 0 0 0 0 0 -0 1 1 1 0 0 1 2 3 3 3 1 1 1 0 0 0 0 0 0 0 0 0 0 0
0 0 0 0 0 0 0 0 0 0 0 0 1 1 1 1 1 1 1 2 3 3 3 2 2 1 1 0 0 0 0 0 0 0 0 0 0 0
1 0 0 0 0 0 0 0 0 0 0 0 1 1 1 1 1 1 2 2 3 4 3 2 2 1 0 0 0 0 0 0 0 0 0 0 0 0
0 0 0 0 0 0 0 0 0 0 0 1 1 1 1 1 1 2 2 4 4 3 2 2 1 1 0 0 0 0 0 0 0 0 0 0 0 0
1 1 1 1 0 0 1 1 0 0 1 1 2 2 2 2 2 2 4 4 4 3 3 2 1 0 0 0 0 0 0 0 0 0 0 0 0 0
0 2 1 1 1 1 1 1 2 1 1 2 2 2 2 2 3 4 4 4 4 3 2 1 0 0 0 0 0 0 0 0 0 0 0 0 0 0
2 2 2 2 1 1 1 1 1 2 2 3 3 3 3 3 4 3 3 3 3 2 2 1 1 0 0 0 0 0 0 0 0 0 0 0 0 0
2 2 3 3 2 2 2 2 3 3 2 3 2 3 4 4 4 4 3 3 3 2 2 2 1 0 0 0 0 0 0 0 0 0 0 0 0 0
3 4 3 3 2 3 3 4 4 4 4 4 3 4 4 4 4 3 2 2 2 2 1 1 1 0 0 0 0 0 0 0 0 0 0 0 0 0
1 2 2 1 1 1 2 4 4 4 4 4 4 4 4 5 4 3 2 2 1 1 1 1 0 0 0 0 0 0 0 0 0 0 0 0 0 0
0 0 0 0 0 0 0 0 1 2 3 3 3 2 2 2 2 2 2 1 1 1 0 0 0 0 0 0 0 0 0 0 0 0 0 0 0 0
Wind_Speed_500mb
34 31 29 21 11 7 11 17 12 7 8 6 2 12 20 28 31 33 37 39 50 49 49 46 39 39 44 49 48 49 55 61 60 58 57 55 53 49
22 32 35 28 19 12 14 12 19 15 16 15 14 11 12 23 28 33 44 49 44 44 40 36 36 42 47 45 47 52 57 48 56 68 68 67 64 62
17 23 30 27 33 22 25 19 17 17 25 22 24 27 30 35 40 46 38 39 42 40 45 43 48 53 59 63 64 59 59 59 61 61 57 70 77 73
28 27 28 27 34 37 28 26 26 26 29 33 32 32 30 26 30 30 37 46 48 40 37 53 50 53 54 58 59 52 50 58 61 65 69 65 63 81
30 29 39 33 32 30 42 39 38 37 36 41 44 39 40 31 30 40 41 29 34 50 50 58 54 57 70 58 61 69 54 52 51 59 59 68 71 66
42 41 39 41 46 42 38 38 36 37 39 44 50 49 35 28 33 31 50 53 59 61 63 67 63 50 57 63 54 48 42 42 53 51 50 48 62 59
53 51 46 42 37 39 41 41 40 41 41 41 45 44 42 40 48 56 62 63 62 61 51 47 50 45 41 43 50 56 58 60 49 47 49 46 31 22
45 47 50 46 44 38 37 40 44 47 48 49 51 55 60 61 55 53 54 61 65 60 56 52 44 40 39 42 56 66 63 54 51 52 38 31 22 21
48 45 45 49 52 49 48 47 49 49 49 49 56 55 55 49 49 57 59 56 61 61 56 64 43 41 42 52 65 55 54 57 57 52 29 26 26 16
53 51 49 47 45 47 47 47 51 52 52 53 55 55 56 58 63 57 56 61 63 52 50 61 49 42 41 57 49 50 61 63 69 38 15 11 7 6
60 58 58 57 51 48 48 55 61 65 61 62 65 68 68 60 55 59 59 52 59 56 51 51 42 47 50 50 39 64 59 61 60 34 11 3 4 7
69 66 65 64 61 60 63 65 69 67 63 63 64 60 53 50 47 48 46 51 52 60 47 43 45 46 46 37 59 53 52 51 50 32 16 6 8 14
71 72 69 65 62 59 57 61 61 41 37 39 43 45 45 45 45 44 42 44 47 50 42 45 40 48 46 46 54 55 45 41 38 22 11 4 12 31
74 71 70 65 61 55 42 41 41 47 48 48 52 52 52 51 45 34 31 41 44 41 39 34 44 46 46 49 50 44 38 29 25 17 8 21 37 57
76 74 73 72 68 57 49 47 44 46 52 57 59 59 54 51 38 29 31 35 36 33 36 39 43 45 41 46 46 41 32 18 12 6 14 21 52 58
70 71 74 73 72 72 76 74 72 69 63 61 58 55 51 44 33 28 34 34 36 35 41 43 46 42 37 42 43 34 28 16 9 7 18 27 40 45
58 63 71 76 76 77 78 77 76 71 65 61 58 51 42 34 29 27 33 37 43 49 47 47 45 39 41 41 37 33 30 23 19 19 22 29 38 39
57 65 62 59 63 69 69 66 66 65 59 49 40 40 37 31 31 31 35 41 38 36 42 41 37 35 41 41 41 35 33 25 21 24 30 33 38 48
69 69 64 54 47 39 42 45 43 41 33 32 42 44 33 31 37 36 33 29 32 37 37 37 32 36 41 45 37 31 36 36 34 35 35 43 48 41
77 70 64 57 48 41 37 34 35 37 41 44 36 28 31 34 33 32 25 28 36 33 29 33 40 44 43 41 39 38 30 37 41 45 44 41 42 39
58 67 61 50 45 42 45 43 48 51 47 41 33 34 32 31 34 35 31 33 31 31 31 31 31 31 28 37 45 47 46 51 47 38 40 45 44 48
44 45 42 35 43 43 47 48 51 50 43 39 39 37 34 33 41 42 38 34 32 31 32 26 28 34 37 44 49 45 43 42 48 46 46 45 45 53
37 41 37 37 36 26 27 38 51 50 37 35 31 27 22 25 26 28 28 30 27 30 34 33 37 39 42 47 51 50 46 44 47 52 55 52 53 53
Wind_Direction_500mb
219 217 204 191 190 203 256 228 261 312 358 159 299 285 289 303 303 301 298 307 316 324 328 320 314 309 306 303 301 299 295 284 277 271 267 262 259 254
212 220 210 202 193 231 236 259 235 261 278 241 233 273 299 269 282 290 301 314 322 327 331 328 328 327 317 312 308 300 292 297 288 274 270 265 261 256
230 226 202 210 217 217 223 232 225 254 271 269 261 257 273 283 288 295 305 312 316 326 329 331 328 325 318 312 320 309 301 293 296 286 279 265 261 257
233 236 237 225 223 229 226 227 234 241 258 276 289 294 291 297 302 308 311 309 310 319 321 324 323 326 324 321 315 313 306 298 298 289 282 282 266 255
234 239 237 246 249 246 234 237 240 247 255 266 277 285 299 313 319 313 311 319 317 315 318 317 318 307 305 309 313 317 314 313 307 297 304 284 289 269
236 239 244 246 250 254 246 243 245 251 256 268 278 287 294 305 308 308 305 304 308 309 308 305 305 309 309 310 318 322 314 308 311 310 307 306 286 283
234 240 241 246 251 250 251 255 260 265 269 270 275 284 290 290 293 300 304 308 310 314 320 319 326 322 324 322 323 324 318 320 319 313 303 301 303 271
237 238 242 247 251 253 255 260 262 267 271 274 278 279 285 291 301 305 307 311 315 325 327 329 333 332 332 327 324 320 321 326 322 329 315 308 289 282
247 246 245 245 248 249 251 254 260 264 268 273 275 278 288 300 303 305 309 307 307 318 324 321 331 328 332 327 322 326 331 330 330 331 317 303 295 269
250 254 257 255 251 251 252 253 259 264 265 268 273 284 291 297 299 298 301 301 304 314 318 312 324 323 331 321 327 334 337 337 336 342 342 322 358 266
249 251 254 259 260 259 258 257 261 267 273 277 281 286 289 289 290 293 294 298 301 311 312 307 320 322 325 329 332 334 341 341 343 347 348 352 346 251
251 254 256 260 263 266 265 267 269 272 274 277 279 280 284 288 292 287 290 288 296 301 308 311 310 317 325 321 328 331 339 343 347 349 338 272 239 201
249 255 258 260 264 266 266 265 269 284 280 280 279 282 289 295 295 288 280 281 287 293 295 304 304 314 315 319 321 326 338 344 346 357 353 254 195 183
255 258 262 265 265 266 258 259 265 274 273 273 276 283 291 296 301 290 294 285 284 289 300 298 296 309 306 311 314 317 330 335 345 9 74 141 158 165
256 259 261 263 263 262 255 257 257 257 258 263 273 286 295 299 297 297 282 280 280 290 297 299 300 303 301 308 305 309 319 322 340 67 147 144 161 165
257 257 257 257 257 254 251 252 257 262 267 272 278 285 289 293 291 290 287 285 280 292 296 299 298 298 299 299 303 297 301 275 284 211 186 178 175 180
253 252 252 251 251 252 252 253 255 259 263 271 276 280 281 279 279 276 276 281 283 289 293 294 292 291 294 287 297 294 287 276 268 237 226 220 212 204
245 247 249 252 255 257 257 258 259 259 261 263 270 277 276 277 279 267 270 276 282 292 297 291 285 284 286 283 295 294 278 271 272 252 248 244 236 229
245 249 252 253 260 265 259 252 247 249 255 263 275 273 261 264 264 265 271 280 290 297 282 285 273 280 275 282 300 298 281 277 267 269 269 266 260 253
245 247 246 251 255 257 259 252 253 254 260 259 256 255 260 262 266 269 273 285 294 296 289 285 272 265 266 290 293 296 271 263 268 269 270 280 269 250
243 243 249 256 259 261 259 251 253 253 254 251 257 267 258 260 259 275 279 284 285 289 284 284 284 294 278 268 264 282 297 272 270 269 271 271 270 254
247 249 249 254 255 262 260 251 247 249 253 257 264 262 259 260 266 274 270 272 268 274 275 279 293 283 267 264 277 288 288 286 274 272 264 268 266 259
231 248 241 240 250 269 276 279 266 253 247 261 263 252 270 276 275 285 282 279 281 277 272 271 279 273 269 274 282 282 281 282 275 269 265 265 268 271
Wind_Speed_850mb
34 31 29 21 11 7 11 17 12 7 8 6 2 12 20 28 31 33 37 39 50 49 49 46 39 39 44 49 48 49 55 61 60 58 57 55 53 49
22 32 35 28 19 12 14 12 19 15 16 15 14 11 12 23 28 33 44 49 44 44 40 36 36 42 47 45 47 52 57 48 56 68 68 67 64 62
17 23 30 27 33 22 25 19 17 17 25 22 24 27 30 35 40 46 38 39 42 40 45 43 48 53 59 63 64 59 59 59 61 61 57 70 77 73
28 27 28 27 34 37 28 26 26 26 29 33 32 32 30 26 30 30 37 46 48 40 37 53 50 53 54 58 59 52 50 58 61 65 69 65 63 81
30 29 39 33 32 30 42 39 38 37 36 41 44 39 40 31 30 40 41 29 34 50 50 58 54 57 70 58 61 69 54 52 51 59 59 68 71 66
42 41 39 41 46 42 38 38 36 37 39 44 50 49 35 28 33 31 50 53 59 61 63 67 63 50 57 63 54 48 42 42 53 51 50 48 62 59
53 51 46 42 37 39 41 41 40 41 41 41 45 44 42 40 48 56 62 63 62 61 51 47 50 45 41 43 50 56 58 60 49 47 49 46 31 22
45 47 50 46 44 38 37 40 44 47 48 49 51 55 60 61 55 53 54 61 65 60 56 52 44 40 39 42 56 66 63 54 51 52 38 31 22 21
48 45 45 49 52 49 48 47 49 49 49 49 56 55 55 49 49 57 59 56 61 61 56 64 43 41 42 52 65 55 54 57 57 52 29 26 26 16
53 51 49 47 45 47 47 47 51 52 52 53 55 55 56 58 63 57 56 61 63 52 50 61 49 42 41 57 49 50 61 63 69 38 15 11 7 6
60 58 58 57 51 48 48 55 61 65 61 62 65 68 68 60 55 59 59 52 59 56 51 51 42 47 50 50 39 64 59 61 60 34 11 3 4 7
69 66 65 64 61 60 63 65 69 67 63 63 64 60 53 50 47 48 46 51 52 60 47 43 45 46 46 37 59 53 52 51 50 32 16 6 8 14
71 72 69 65 62 59 57 61 61 41 37 39 43 45 45 45 45 44 42 44 47 50 42 45 40 48 46 46 54 55 45 41 38 22 11 4 12 31
74 71 70 65 61 55 42 41 41 47 48 48 52 52 52 51 45 34 31 41 44 41 39 34 44 46 46 49 50 44 38 29 25 17 8 21 37 57
76 74 73 72 68 57 49 47 44 46 52 57 59 59 54 51 38 29 31 35 36 33 36 39 43 45 41 46 46 41 32 18 12 6 14 21 52 58
70 71 74 73 72 72 76 74 72 69 63 61 58 55 51 44 33 28 34 34 36 35 41 43 46 42 37 42 43 34 28 16 9 7 18 27 40 45
58 63 71 76 76 77 78 77 76 71 65 61 58 51 42 34 29 27 33 37 43 49 47 47 45 39 41 41 37 33 30 23 19 19 22 29 38 39
57 65 62 59 63 69 69 66 66 65 59 49 40 40 37 31 31 31 35 41 38 36 42 41 37 35 41 41 41 35 33 25 21 24 30 33 38 48
69 69 64 54 47 39 42 45 43 41 33 32 42 44 33 31 37 36 33 29 32 37 37 37 32 36 41 45 37 31 36 36 34 35 35 43 48 41
77 70 64 57 48 41 37 34 35 37 41 44 36 28 31 34 33 32 25 28 36 33 29 33 40 44 43 41 39 38 30 37 41 45 44 41 42 39
58 67 61 50 45 42 45 43 48 51 47 41 33 34 32 31 34 35 31 33 31 31 31 31 31 31 28 37 45 47 46 51 47 38 40 45 44 48
44 45 42 35 43 43 47 48 51 50 43 39 39 37 34 33 41 42 38 34 32 31 32 26 28 34 37 44 49 45 43 42 48 46 46 45 45 53
37 41 37 37 36 26 27 38 51 50 37 35 31 27 22 25 26 28 28 30 27 30 34 33 37 39 42 47 51 50 46 44 47 52 55 52 53 53
Wind_Direction_850mb
219 217 204 191 190 203 256 228 261 312 358 159 299 285 289 303 303 301 298 307 316 324 328 320 314 309 306 303 301 299 295 284 277 271 267 262 259 254
212 220 210 202 193 231 236 259 235 261 278 241 233 273 299 269 282 290 301 314 322 327 331 328 328 327 317 312 308 300 292 297 288 274 270 265 261 256
230 226 202 210 217 217 223 232 225 254 271 269 261 257 273 283 288 295 305 312 316 326 329 331 328 325 318 312 320 309 301 293 296 286 279 265 261 257
233 236 237 225 223 229 226 227 234 241 258 276 289 294 291 297 302 308 311 309 310 319 321 324 323 326 324 321 315 313 306 298 298 289 282 282 266 255
234 239 237 246 249 246 234 237 240 247 255 266 277 285 299 313 319 313 311 319 317 315 318 317 318 307 305 309 313 317 314 313 307 297 304 284 289 269
236 239 244 246 250 254 246 243 245 251 256 268 278 287 294 305 308 308 305 304 308 309 308 305 305 309 309 310 318 322 314 308 311 310 307 306 286 283
234 240 241 246 251 250 251 255 260 265 269 270 275 284 290 290 293 300 304 308 310 314 320 319 326 322 324 322 323 324 318 320 319 313 303 301 303 271
237 238 242 247 251 253 255 260 262 267 271 274 278 279 285 291 301 305 307 311 315 325 327 329 333 332 332 327 324 320 321 326 322 329 315 308 289 282
247 246 245 245 248 249 251 254 260 264 268 273 275 278 288 300 303 305 309 307 307 318 324 321 331 328 332 327 322 326 331 330 330 331 317 303 295 269
250 254 257 255 251 251 252 253 259 264 265 268 273 284 291 297 299 298 301 301 304 314 318 312 324 323 331 321 327 334 337 337 336 342 342 322 358 266
249 251 254 259 260 259 258 257 261 267 273 277 281 286 289 289 290 293 294 298 301 311 312 307 320 322 325 329 332 334 341 341 343 347 348 352 346 251
251 254 256 260 263 266 265 267 269 272 274 277 279 280 284 288 292 287 290 288 296 301 308 311 310 317 325 321 328 331 339 343 347 349 338 272 239 201
249 255 258 260 264 266 266 265 269 284 280 280 279 282 289 295 295 288 280 281 287 293 295 304 304 314 315 319 321 326 338 344 346 357 353 254 195 183
255 258 262 265 265 266 258 259 265 274 273 273 276 283 291 296 301 290 294 285 284 289 300 298 296 309 306 311 314 317 330 335 345 9 74 141 158 165
256 259 261 263 263 262 255 257 257 257 258 263 273 286 295 299 297 297 282 280 280 290 297 299 300 303 301 308 305 309 319 322 340 67 147 144 161 165
257 257 257 257 257 254 251 252 257 262 267 272 278 285 289 293 291 290 287 285 280 292 296 299 298 298 299 299 303 297 301 275 284 211 186 178 175 180
253 252 252 251 251 252 252 253 255 259 263 271 276 280 281 279 279 276 276 281 283 289 293 294 292 291 294 287 297 294 287 276 268 237 226 220 212 204
245 247 249 252 255 257 257 258 259 259 261 263 270 277 276 277 279 267 270 276 282 292 297 291 285 284 286 283 295 294 278 271 272 252 248 244 236 229
245 249 252 253 260 265 259 252 247 249 255 263 275 273 261 264 264 265 271 280 290 297 282 285 273 280 275 282 300 298 281 277 267 269 269 266 260 253
245 247 246 251 255 257 259 252 253 254 260 259 256 255 260 262 266 269 273 285 294 296 289 285 272 265 266 290 293 296 271 263 268 269 270 280 269 250
243 243 249 256 259 261 259 251 253 253 254 251 257 267 258 260 259 275 279 284 285 289 284 284 284 294 278 268 264 282 297 272 270 269 271 271 270 254
247 249 249 254 255 262 260 251 247 249 253 257 264 262 259 260 266 274 270 272 268 274 275 279 293 283 267 264 277 288 288 286 274 272 264 268 266 259
231 248 241 240 250 269 276 279 266 253 247 261 263 252 270 276 275 285 282 279 281 277 272 271 279 273 269 274 282 282 281 282 275 269 265 265 268 271